Regional Weather Roundup
Issued by NWS

Home | Current Version | Previous Version | Text Only | Print | Product List | Glossary On
Versions: 1 2 3 4 5 6 7 8 9 10 11 12 13 14 15 16 17 18 19 20 21 22 23 24 25 26 27 28
000
ASUS42 KFFC 262103
RWRGA
WEATHER ROUNDUP FOR GEORGIA
NATIONAL WEATHER SERVICE PEACHTREE CITY GA
500 PM EDT MON SEP 26 2016

NOTE: "FAIR" INDICATES FEW OR NO CLOUDS BELOW 12,000 FEET WITH NO
SIGNIFICANT WEATHER AND/OR OBSTRUCTIONS TO VISIBILITY.

* = USE WITH CAUTION. THE STATIONS MARKED WITH AN ASTERISK MAY NOT
REPORT WEATHER SUCH AS PRECIPITATION, FOG, OR THUNDER AND ARE NOT
QUALITY CONTROLLED BY NWS.

THE REMARK "TC" DENOTES TEMPERATURE READING IN DEGREES CELSIUS.

GAZ001>058-262200-
NORTH GEORGIA

CITY           SKY/WX    TMP DP  RH WIND       PRES   REMARKS
ATLANTA        MOSUNNY   86  62  44 SE7       29.99F
ATHENS         SUNNY     88  66  48 VRB3      29.99F HX  90
CHAMBLEE       SUNNY     87  62  43 S6        29.99F
PEACHTREE CITY SUNNY     86  63  45 SE7       29.99F
ROME           HVY RAIN  70  67  90 N14G22    30.02R FOG
WEST ATLANTA   MOSUNNY   88  60  38 E5        29.98F
GAINESVILLE    SUNNY     85  63  47 SE7       30.02F
CARTERSVILLE   MOSUNNY   88  62  41 CALM      29.99F


CITY           SKY/WX    TMP DP  RH WIND       PRES   REMARKS
DALTON*        LGT RAIN  70  70 100 NE3       30.04R
LAWRENCEVILLE* MOSUNNY   88  64  45 CALM      29.99F
MARIETTA       PTSUNNY   86  62  43 SW6       29.99F
KENNESAW*      MOSUNNY   86  61  42 S8        29.95F
CANTON*        MOSUNNY   86  50  28 S5        30.02F
BLAIRSVILLE*     N/A    N/A N/A N/A MISG      30.08R
$$

GAZ059>098-102>109-262200-
CENTRAL GEORGIA

CITY           SKY/WX    TMP DP  RH WIND       PRES   REMARKS
AUGUSTA-BUSH   PTSUNNY   83  69  62 SE8       29.98S
AUGUSTA-DANIEL MOSUNNY   87  65  47 SE6       29.99F
COLUMBUS       SUNNY     90  62  39 VRB5      29.94F HX  90
MACON          SUNNY     89  65  44 SE5       29.97F HX  91
ROBINS AFB     SUNNY     89  66  47 VRB3      29.96F HX  91


CITY           SKY/WX    TMP DP  RH WIND       PRES   REMARKS
LAGRANGE*      MOSUNNY   89  67  48 SE3       29.97S HX  92
MILLEDGEVILLE* PTSUNNY   90  68  48 NE6       29.97S HX  93
$$

GAZ099>101-110>166-262200-
SOUTH GEORGIA

CITY           SKY/WX    TMP DP  RH WIND       PRES   REMARKS
SAVANNAH       CLOUDY    80  70  71 E12       29.99F
VALDOSTA       PTSUNNY   83  72  69 SW3       29.96R
ALMA           PTSUNNY   87  69  54 E12       29.96S HX  91
ST SIMONS      PTSUNNY   81  71  71 NE14      29.97S
ALBANY         MOSUNNY   83  68  60 SE8       29.97S
HUNTER AFB     CLOUDY    80  76  85 E12       29.98S
MOODY AFB      MOSUNNY   87  69  56 E7        29.95R HX  91
BRUNSWICK      PTSUNNY   81  73  78 NE13      29.98S


CITY           SKY/WX    TMP DP  RH WIND       PRES   REMARKS
BAINBRIDGE*    SUNNY     91  66  43 NE10      29.93F HX  94
MOULTRIE*      MOSUNNY   79  72  78 NW7       29.97S THUNDER
VIDALIA*       SUNNY     86  73  66 E6        29.99F HX  93
WAYCROSS*      PTSUNNY   89  72  55 E12       29.96S HX  96
DOUGLAS*       PTSUNNY   86  66  51 E8        29.97S
$$




USA.gov is the U.S. government's official web portal to all federal, state and local government web resources and services.